Detroit, MI

7:50 PM EDT on May 27, 2017 (GMT -0400)
Detroit City

Weather History for KDET - December, 2012

Change the Weather History Date:

Monday, December 17, 2012

  Actual Average Record
Temperature  
Mean Temperature 42 °F -  
Max Temperature 44 °F 32 °F 57 °F (1984)
Min Temperature 39 °F 23 °F -2 °F (1951)
Degree Days  
Heating Degree Days 24    
Moisture  
Dew Point 35 °F    
Average Humidity 77    
Maximum Humidity 82    
Minimum Humidity 71    
Precipitation  
Precipitation 0.00 in - - ()
Sea Level Pressure  
Sea Level Pressure 29.69 in    
Wind  
Wind Speed 8 mph (West)    
Max Wind Speed 14 mph    
Max Gust Speed 21 mph    
Visibility 10 miles    
Events      
Averages and records for this station are not official NWS values.
T = Trace of Precipitation, MM = Missing Value Source: NWS Daily Summary

Daily Weather History Graph

Daily Weather History Graph

Search for Another Location

Airport or City:

Trip Planner

Search our weather history database for the weather conditions in past years. The results will help you decide how hot, cold, wet, or windy it might be!

Date:

Astronomy

Dec. 17, 2012 Rise Set
Actual Time 7:56 AM EST 5:00 PM EST
Civil Twilight 7:24 AM EST 5:32 PM EST
Nautical Twilight 6:48 AM EST 6:08 PM EST
Astronomical Twilight 6:14 AM EST 6:42 PM EST
Moon 10:59 AM EST (12/17) 10:26 PM EST (12/17)
Length of Visible Light 10h 08m
Length of Day
9h 04m
Waxing Crescent, 24% of the Moon is Illuminated
Dec 17
Waxing Crescent
Dec 20
First Quarter
Dec 28
Full
Jan 4
Last Quarter
Jan 11
New

Hourly Weather History & Observations

Time (EST) Temp. Windchill Dew Point Humidity Pressure Visibility Wind Dir Wind Speed Gust Speed Precip Events Conditions
12:16 AM 44.6 °F 38.1 °F 39.2 °F 81% 29.67 in 10.0 mi WSW 13.8 mph 20.7 mph N/A   Overcast
12:32 AM 44.6 °F 39.7 °F 39.2 °F 81% 29.67 in 10.0 mi WSW 9.2 mph - N/A   Overcast
12:53 AM 44.1 °F 39.0 °F 39.0 °F 82% 29.67 in 10.0 mi West 9.2 mph 18.4 mph N/A   Overcast
1:53 AM 44.1 °F 40.1 °F 37.0 °F 76% 29.69 in 10.0 mi West 6.9 mph - N/A   Overcast
2:09 AM 42.8 °F 37.5 °F 37.4 °F 81% 29.68 in 10.0 mi West 9.2 mph - N/A   Overcast
2:53 AM 43.0 °F 38.2 °F 37.0 °F 80% 29.70 in 10.0 mi West 8.1 mph - N/A   Overcast
3:53 AM 43.0 °F 38.2 °F 37.0 °F 80% 29.70 in 10.0 mi West 8.1 mph - N/A   Overcast
4:00 AM 42.8 °F 39.3 °F 37.4 °F 81% 29.69 in 10.0 mi West 5.8 mph - N/A   Overcast
4:53 AM 42.1 °F 40.2 °F 37.0 °F 82% 29.71 in 10.0 mi WSW 3.5 mph - N/A   Overcast
5:53 AM 43.0 °F 38.8 °F 36.0 °F 76% 29.72 in 10.0 mi West 6.9 mph - N/A   Overcast
6:53 AM 42.1 °F 37.1 °F 36.0 °F 79% 29.73 in 10.0 mi WSW 8.1 mph - N/A   Overcast
7:53 AM 42.1 °F 39.2 °F 35.1 °F 76% 29.75 in 10.0 mi West 4.6 mph - N/A   Overcast
8:53 AM 42.1 °F 39.2 °F 35.1 °F 76% 29.75 in 10.0 mi West 4.6 mph - N/A   Overcast
9:53 AM 42.1 °F 38.4 °F 35.1 °F 76% 29.75 in 10.0 mi WSW 5.8 mph - N/A   Overcast
10:53 AM 42.1 °F 40.2 °F 34.0 °F 73% 29.74 in 10.0 mi WNW 3.5 mph - N/A   Overcast
11:53 AM 43.0 °F - 35.1 °F 74% 29.71 in 10.0 mi Calm Calm - N/A   Overcast
12:53 PM 43.0 °F - 34.0 °F 71% 29.69 in 10.0 mi Calm Calm - N/A   Overcast
1:53 PM 43.0 °F 40.3 °F 34.0 °F 71% 29.67 in 10.0 mi South 4.6 mph - N/A   Overcast
2:53 PM 43.0 °F 40.3 °F 34.0 °F 71% 29.66 in 10.0 mi South 4.6 mph - N/A   Overcast
3:53 PM 43.0 °F - 34.0 °F 71% 29.66 in 10.0 mi Calm Calm - N/A   Overcast
4:53 PM 43.0 °F - 34.0 °F 71% 29.65 in 10.0 mi Calm Calm - N/A   Overcast
7:53 PM 41.0 °F 35.2 °F 34.0 °F 76% 29.65 in 10.0 mi North 9.2 mph - N/A   Overcast
8:53 PM 39.9 °F 33.9 °F 34.0 °F 79% 29.64 in 10.0 mi North 9.2 mph - N/A   Overcast
9:53 PM 39.9 °F 35.1 °F 33.1 °F 77% 29.63 in 10.0 mi NNE 6.9 mph - N/A   Overcast
10:53 PM 39.9 °F 35.1 °F 33.1 °F 77% 29.64 in 10.0 mi NNE 6.9 mph - N/A   Overcast
11:53 PM 39.9 °F 37.8 °F 32.0 °F 73% 29.64 in 10.0 mi North 3.5 mph - N/A   Overcast